Weather History for Silver Bay, MN

Change the Weather History Date:

Wednesday, February 13, 2013

  Actual Average Record
Temperature  
Mean Temperature 26 °F -  
Max Temperature 39 °F 25 °F 53 °F (1997)
Min Temperature 14 °F 3 °F -22 °F (1997)
Degree Days  
Heating Degree Days 38    
Moisture  
Dew Point 17 °F    
Average Humidity 74    
Maximum Humidity 93    
Minimum Humidity 45    
Precipitation  
Precipitation 0.00 in - - ()
Sea Level Pressure  
Sea Level Pressure 29.60 in    
Wind  
Wind Speed 3 mph (WNW)    
Max Wind Speed 8 mph    
Max Gust Speed -    
Visibility 10 miles    
Events Snow    
Averages and records for this station are not official NWS values.
T = Trace of Precipitation, MM = Missing Value Source: NWS Daily Summary

Daily Weather History Graph

Daily Weather History Graph

Search for Another Location

Airport:

Trip Planner

Search our weather history database for the weather conditions in past years. The results will help you decide how hot, cold, wet, or windy it might be!

Date:

Astronomy

Feb. 13, 2013 Rise Set
Actual Time 7:13 AM CST 5:27 PM CST
Civil Twilight 6:41 AM CST 5:58 PM CST
Nautical Twilight 6:05 AM CST 6:34 PM CST
Astronomical Twilight 5:30 AM CST 7:10 PM CST
Moon 8:24 AM CST (2/13) 9:51 PM CST (2/13)
Length of Visible Light 11h 16m
Length of Day
10h 13m
Waxing Crescent, 14% of the Moon is Illuminated
Feb 13
Waxing Crescent
Feb 17
First Quarter
Feb 25
Full
Mar 4
Last Quarter
Mar 11
New

Hourly Weather History & Observations

Time (CST) Temp. Windchill Dew Point Humidity Pressure Visibility Wind Dir Wind Speed Gust Speed Precip Events Conditions
12:13 AM 24.8 °F 20.5 °F 15.8 °F 69% 29.62 in 10.0 mi WNW 3.5 mph - N/A   Scattered Clouds
12:33 AM 23.0 °F 17.0 °F 15.8 °F 74% 29.62 in 10.0 mi WNW 4.6 mph - N/A   Clear
12:53 AM 23.0 °F 14.7 °F 15.8 °F 74% 29.62 in 10.0 mi WNW 6.9 mph - N/A   Clear
1:13 AM 21.2 °F 12.6 °F 15.8 °F 80% 29.62 in 10.0 mi WNW 6.9 mph - N/A   Scattered Clouds
1:33 AM 21.2 °F 13.6 °F 15.8 °F 80% 29.62 in 10.0 mi WNW 5.8 mph - N/A   Mostly Cloudy
1:53 AM 21.2 °F 13.6 °F 15.8 °F 80% 29.63 in 10.0 mi WNW 5.8 mph - N/A   Scattered Clouds
2:13 AM 21.2 °F 13.6 °F 15.8 °F 80% 29.62 in 10.0 mi NW 5.8 mph - N/A   Clear
2:33 AM 21.2 °F 16.4 °F 15.8 °F 80% 29.62 in 10.0 mi WNW 3.5 mph - N/A   Clear
2:53 AM 21.2 °F 13.6 °F 15.8 °F 80% 29.61 in 10.0 mi NW 5.8 mph - N/A   Clear
3:13 AM 21.2 °F 13.6 °F 15.8 °F 80% 29.61 in 10.0 mi WNW 5.8 mph - N/A   Clear
3:33 AM 21.2 °F 13.6 °F 15.8 °F 80% 29.61 in 10.0 mi WNW 5.8 mph - N/A   Clear
3:53 AM 21.2 °F 13.6 °F 15.8 °F 80% 29.61 in 10.0 mi NW 5.8 mph - N/A   Clear
4:13 AM 21.2 °F 13.6 °F 15.8 °F 80% 29.60 in 10.0 mi NW 5.8 mph - N/A   Clear
4:33 AM 19.4 °F 14.3 °F 15.8 °F 86% 29.61 in 10.0 mi West 3.5 mph - N/A   Clear
4:53 AM 19.4 °F - 15.8 °F 86% 29.61 in 10.0 mi Calm Calm - N/A   Clear
5:13 AM 19.4 °F - 14.0 °F 80% 29.60 in 10.0 mi Calm Calm - N/A   Clear
5:33 AM 17.6 °F 12.3 °F 12.2 °F 79% 29.60 in 10.0 mi WSW 3.5 mph - N/A   Clear
5:53 AM 15.8 °F - 12.2 °F 86% 29.60 in 10.0 mi Calm Calm - N/A   Clear
6:13 AM 15.8 °F 10.2 °F 12.2 °F 86% 29.60 in 10.0 mi WSW 3.5 mph - N/A   Clear
6:33 AM 15.8 °F - 10.4 °F 79% 29.59 in 10.0 mi Calm Calm - N/A   Clear
6:53 AM 14.0 °F - 10.4 °F 86% 29.59 in 10.0 mi Calm Calm - N/A   Clear
7:13 AM 14.0 °F - 10.4 °F 86% 29.59 in 10.0 mi Calm Calm - N/A   Clear
7:33 AM 15.8 °F - 10.4 °F 79% 29.59 in 10.0 mi Calm Calm - N/A   Clear
7:54 AM 17.6 °F 12.3 °F 15.8 °F 93% 29.59 in 10.0 mi West 3.5 mph - N/A   Clear
8:13 AM 19.4 °F 14.3 °F 17.6 °F 93% 29.59 in 10.0 mi WNW 3.5 mph - N/A   Mostly Cloudy
8:33 AM 21.2 °F - 17.6 °F 86% 29.58 in 10.0 mi Calm Calm - N/A   Overcast
8:53 AM 23.0 °F - 19.4 °F 86% 29.58 in 10.0 mi Calm Calm - N/A Snow Light Snow
9:13 AM 26.6 °F 22.6 °F 21.2 °F 80% 29.58 in 10.0 mi West 3.5 mph - N/A   Mostly Cloudy
9:33 AM 30.2 °F - 21.2 °F 69% 29.57 in 10.0 mi Calm Calm - N/A   Scattered Clouds
9:54 AM 30.2 °F 26.7 °F 19.4 °F 64% 29.57 in 10.0 mi West 3.5 mph - N/A   Clear
10:13 AM 33.8 °F 29.6 °F 21.2 °F 60% 29.57 in 10.0 mi West 4.6 mph - N/A   Clear
10:33 AM 33.8 °F 27.7 °F 19.4 °F 56% 29.57 in 10.0 mi WSW 6.9 mph - N/A   Clear
11:13 AM 35.6 °F 30.7 °F 19.4 °F 52% 29.57 in 10.0 mi West 5.8 mph - N/A   Clear
11:33 AM 37.4 °F 34.9 °F 21.2 °F 52% 29.57 in 10.0 mi West 3.5 mph - N/A   Clear
11:53 AM 37.4 °F 33.8 °F 19.4 °F 48% 29.57 in 10.0 mi NW 4.6 mph - N/A   Clear
12:13 PM 39.2 °F - 21.2 °F 49% 29.57 in 10.0 mi Calm Calm - N/A   Clear
12:53 PM 39.2 °F 34.2 °F 19.4 °F 45% 29.57 in 10.0 mi WNW 6.9 mph - N/A   Clear
1:13 PM 39.2 °F 35.9 °F 19.4 °F 45% 29.57 in 10.0 mi NW 4.6 mph - N/A   Clear
1:34 PM 39.2 °F 34.2 °F 19.4 °F 45% 29.57 in 10.0 mi NNW 6.9 mph - N/A   Clear
1:53 PM 37.4 °F 32.1 °F 19.4 °F 48% 29.57 in 10.0 mi NNW 6.9 mph - N/A   Clear
2:13 PM 35.6 °F 29.2 °F 19.4 °F 52% 29.57 in 10.0 mi North 8.1 mph - N/A   Clear
2:33 PM 32.0 °F 26.4 °F 19.4 °F 60% 29.57 in 10.0 mi NNW 5.8 mph - N/A   Clear
2:53 PM 30.2 °F 24.3 °F 19.4 °F 64% 29.57 in 10.0 mi NNW 5.8 mph - N/A   Clear
3:14 PM 30.2 °F 24.3 °F 17.6 °F 60% 29.57 in 10.0 mi North 5.8 mph - N/A   Clear
3:33 PM 30.2 °F 26.7 °F 17.6 °F 60% 29.58 in 10.0 mi NW 3.5 mph - N/A   Clear
3:53 PM 28.4 °F 24.6 °F 17.6 °F 64% 29.58 in 10.0 mi NNW 3.5 mph - N/A   Scattered Clouds
4:13 PM 28.4 °F - 17.6 °F 64% 29.58 in 10.0 mi Calm Calm - N/A   Scattered Clouds
4:33 PM 28.4 °F 23.3 °F 17.6 °F 64% 29.59 in 10.0 mi NNW 4.6 mph - N/A   Scattered Clouds
4:53 PM 28.4 °F - 17.6 °F 64% 29.59 in 10.0 mi Calm Calm - N/A   Clear
5:13 PM 26.6 °F - 17.6 °F 69% 29.60 in 10.0 mi Calm Calm - N/A   Clear
5:33 PM 26.6 °F - 17.6 °F 69% 29.60 in 10.0 mi Calm Calm - N/A   Clear
5:53 PM 24.8 °F - 17.6 °F 74% 29.60 in 10.0 mi Calm Calm - N/A   Clear
6:13 PM 24.8 °F - 17.6 °F 74% 29.61 in 10.0 mi Calm Calm - N/A   Scattered Clouds
6:33 PM 23.0 °F - 17.6 °F 80% 29.61 in 10.0 mi Calm Calm - N/A   Scattered Clouds
6:53 PM 23.0 °F - 19.4 °F 86% 29.61 in 10.0 mi Calm Calm - N/A   Clear
7:13 PM 21.2 °F - 17.6 °F 86% 29.61 in 10.0 mi Calm Calm - N/A   Clear
7:33 PM 21.2 °F - 17.6 °F 86% 29.61 in 10.0 mi Calm Calm - N/A   Clear
7:53 PM 21.2 °F - 17.6 °F 86% 29.61 in 10.0 mi Calm Calm - N/A   Clear
8:13 PM 21.2 °F - 17.6 °F 86% 29.61 in 10.0 mi Calm Calm - N/A   Clear
8:33 PM 23.0 °F - 17.6 °F 80% 29.61 in 10.0 mi Calm Calm - N/A   Clear
8:53 PM 23.0 °F - 17.6 °F 80% 29.61 in 10.0 mi Calm Calm - N/A   Clear
9:13 PM 21.2 °F - 17.6 °F 86% 29.62 in 10.0 mi Calm Calm - N/A   Mostly Cloudy
9:33 PM 21.2 °F - 15.8 °F 80% 29.62 in 10.0 mi Calm Calm - N/A   Mostly Cloudy
9:53 PM 21.2 °F - 15.8 °F 80% 29.62 in 10.0 mi Calm Calm - N/A   Scattered Clouds
10:13 PM 21.2 °F - 15.8 °F 80% 29.62 in 10.0 mi Calm Calm - N/A   Clear
10:33 PM 21.2 °F - 17.6 °F 86% 29.62 in 10.0 mi Calm Calm - N/A   Clear
10:53 PM 21.2 °F - 15.8 °F 80% 29.62 in 10.0 mi Calm Calm - N/A   Clear
11:13 PM 19.4 °F - 15.8 °F 86% 29.62 in 10.0 mi Calm Calm - N/A   Clear
11:33 PM 19.4 °F - 15.8 °F 86% 29.62 in 10.0 mi Calm Calm - N/A   Clear
11:53 PM 19.4 °F - 14.0 °F 80% 29.63 in 10.0 mi Calm Calm - N/A   Clear